Location: El Diablo
(32.4667°N, 116.4500°W)
Time: 01:44:20
(UTC+00:00)

CZ-2C R/B - Pass Details

Date: 10 September 2024
Orbit: 664 x 778 km, 98.4° (Epoch: 06 October)

Event Time Altitude Azimuth Distance (km) Brightness Sun altitude
Rises 12:43:09 0° 346° (NNW) 3,141 5.7 -9.9°
Reaches altitude 10° 12:47:04 10° 315° (NW) 2,185 4.5 -9.1°
Maximum altitude 12:48:36 11° 296° (WNW) 2,072 4.3 -8.8°
Drops below altitude 10° 12:50:07 10° 277° (W) 2,158 4.2 -8.5°
Enters shadow 12:50:22 10° 274° (W) 2,193 4.2 -8.4°
